Willimantic, CT

4:25 AM EDT on September 25, 2017 (GMT -0400)
Windham

Weather History for KIJD - January, 2013

Change the Weather History Date:

Sunday, January 13, 2013

  Actual Average Record
Temperature  
Mean Temperature 45 °F -  
Max Temperature 53 °F 31 °F 57 °F (2005)
Min Temperature 37 °F 9 °F -18 °F (1981)
Degree Days  
Heating Degree Days 20    
Moisture  
Dew Point 43 °F    
Average Humidity 94    
Maximum Humidity 100    
Minimum Humidity 80    
Precipitation  
Precipitation 0.00 in - - ()
Sea Level Pressure  
Sea Level Pressure 30.10 in    
Wind  
Wind Speed 2 mph (SSW)    
Max Wind Speed 9 mph    
Max Gust Speed 18 mph    
Visibility 4 miles    
Events Fog    
Averages and records for this station are not official NWS values.
T = Trace of Precipitation, MM = Missing Value Source: NWS Daily Summary

Daily Weather History Graph

Daily Weather History Graph

Search for Another Location

Airport or City:

Trip Planner

Search our weather history database for the weather conditions in past years. The results will help you decide how hot, cold, wet, or windy it might be!

Date:

Astronomy

Jan. 13, 2013 Rise Set
Actual Time 7:14 AM EST 4:41 PM EST
Civil Twilight 6:43 AM EST 5:11 PM EST
Nautical Twilight 6:09 AM EST 5:46 PM EST
Astronomical Twilight 5:35 AM EST 6:19 PM EST
Moon 8:08 AM EST (1/13) 7:19 PM EST (1/13)
Length of Visible Light 10h 28m
Length of Day
9h 26m
Waxing Crescent, 5% of the Moon is Illuminated
Jan 13
Waxing Crescent
Jan 18
First Quarter
Jan 26
Full
Feb 3
Last Quarter
Feb 10
New

Hourly Weather History & Observations

Time (EST) Temp. Windchill Dew Point Humidity Pressure Visibility Wind Dir Wind Speed Gust Speed Precip Events Conditions
1:52 AM 39.0 °F - 37.9 °F 96% 30.17 in 0.5 mi Calm Calm - N/A Fog Fog
2:52 AM 39.0 °F - 37.9 °F 96% 30.16 in 0.8 mi Calm Calm - N/A   Mist
2:59 AM 39.2 °F - 37.4 °F 93% 30.15 in 1.0 mi Calm Calm - N/A   Overcast
3:43 AM 37.4 °F - 37.4 °F 100% 30.14 in 0.8 mi Calm Calm - N/A   Overcast
3:52 AM 39.0 °F - 37.9 °F 96% 30.13 in 0.5 mi Calm Calm - N/A Fog Fog
4:38 AM 39.2 °F - 39.2 °F 100% 30.10 in 1.2 mi Calm Calm - N/A   Overcast
4:47 AM 37.9 °F 35.5 °F 37.9 °F 100% 30.10 in 0.8 mi NNW 3.5 mph - N/A   Mist
4:54 AM 37.4 °F 34.9 °F 37.4 °F 100% 30.10 in 0.8 mi NNE 3.5 mph - N/A   Mist
5:13 AM 39.2 °F 37.0 °F 37.4 °F 93% 30.12 in 1.0 mi WSW 3.5 mph - N/A   Mist
5:45 AM 39.2 °F - 39.2 °F 100% 30.12 in 0.8 mi Calm Calm - N/A   Mist
5:52 AM 39.0 °F - 37.9 °F 96% 30.13 in 0.8 mi Calm Calm - N/A   Mist
6:52 AM 39.0 °F - 37.9 °F 96% 30.14 in 0.5 mi Calm Calm - N/A Fog Fog
7:34 AM 39.2 °F - 37.4 °F 93% 30.15 in 0.2 mi Calm Calm - N/A Fog Fog
7:52 AM 39.0 °F - 37.9 °F 96% 30.15 in 0.5 mi Calm Calm - N/A Fog Fog
8:13 AM 39.2 °F - 39.2 °F 100% 30.15 in 0.2 mi Calm Calm - N/A Fog Fog
8:52 AM 41.0 °F - 39.9 °F 96% 30.16 in 0.2 mi Calm Calm - N/A Fog Fog
9:52 AM 43.0 °F - 43.0 °F 100% 30.17 in 0.2 mi Calm Calm - N/A Fog Fog
10:15 AM 44.6 °F - 44.6 °F 100% 30.15 in 0.8 mi Calm Calm - N/A   Overcast
10:52 AM 45.0 °F 42.6 °F 44.1 °F 97% 30.15 in 1.0 mi South 4.6 mph - N/A   Overcast
11:19 AM 46.4 °F - 44.6 °F 93% 30.14 in 2.5 mi Calm Calm - N/A   Overcast
11:29 AM 46.4 °F 44.3 °F 44.6 °F 93% 30.14 in 5.0 mi SSW 4.6 mph - N/A   Overcast
12:38 PM 48.2 °F - 46.4 °F 93% 30.11 in 9.0 mi South 5.8 mph - N/A   Overcast
12:52 PM 50.0 °F - 46.9 °F 89% 30.10 in 10.0 mi South 4.6 mph - N/A   Mostly Cloudy
1:11 PM 51.8 °F - 46.4 °F 82% 30.09 in 10.0 mi South 5.8 mph - N/A   Mostly Cloudy
1:52 PM 53.1 °F - 48.0 °F 83% 30.09 in 10.0 mi South 8.1 mph - N/A   Scattered Clouds
2:52 PM 53.1 °F - 46.9 °F 80% 30.08 in 10.0 mi SSW 6.9 mph - N/A   Overcast
4:52 PM 50.0 °F - 46.9 °F 89% 30.06 in 10.0 mi South 9.2 mph - N/A   Overcast
5:08 PM 50.0 °F - 46.4 °F 87% 30.05 in 10.0 mi South 9.2 mph 18.4 mph N/A   Overcast
5:52 PM 50.0 °F - 46.9 °F 89% 30.06 in 10.0 mi South 5.8 mph - N/A   Overcast
6:52 PM 50.0 °F - 46.9 °F 89% 30.06 in 10.0 mi SSW 6.9 mph - N/A   Overcast
7:52 PM 50.0 °F - 46.9 °F 89% 30.06 in 10.0 mi SSW 3.5 mph - N/A   Overcast
8:25 PM 50.0 °F - 46.4 °F 87% 30.04 in 10.0 mi SSW 4.6 mph - N/A   Overcast
8:52 PM 50.0 °F - 46.9 °F 89% 30.05 in 10.0 mi SW 3.5 mph - N/A   Overcast
9:52 PM 48.9 °F - 48.0 °F 97% 30.03 in 3.0 mi South 4.6 mph - N/A   Overcast
10:37 PM 48.2 °F - 48.2 °F 100% 30.03 in 4.0 mi South 3.5 mph - N/A   Overcast
10:52 PM 48.9 °F - 48.0 °F 97% 30.03 in 3.0 mi Calm Calm - N/A   Overcast
11:07 PM 48.2 °F - 48.2 °F 100% 30.02 in 2.5 mi South 5.8 mph - N/A   Overcast
11:34 PM 48.2 °F - 48.2 °F 100% 30.03 in 1.8 mi South 3.5 mph - N/A   Overcast
11:52 PM 48.9 °F - 48.0 °F 97% 30.03 in 1.5 mi South 4.6 mph - N/A   Overcast